Kenai, AK

4:18 AM AKDT on July 29, 2017 (GMT -0800)
Kenai Municipal

Weather History for PAEN - January, 2014

Change the Weather History Date:

Tuesday, January 28, 2014

  Actual Average Record
Temperature  
Mean Temperature 38 °F -  
Max Temperature 45 °F 22 °F 45 °F (2014)
Min Temperature 32 °F 8 °F -44 °F (1989)
Degree Days  
Heating Degree Days 26    
Moisture  
Dew Point 31 °F    
Average Humidity 81    
Maximum Humidity 100    
Minimum Humidity 60    
Precipitation  
Precipitation 0.00 in - - ()
Sea Level Pressure  
Sea Level Pressure 29.96 in    
Wind  
Wind Speed 2 mph (NE)    
Max Wind Speed 9 mph    
Max Gust Speed -    
Visibility 10 miles    
Events Rain    
Averages and records for this station are not official NWS values.
T = Trace of Precipitation, MM = Missing Value Source: NWS Daily Summary

Daily Weather History Graph

Daily Weather History Graph

Search for Another Location

Airport or City:

Trip Planner

Search our weather history database for the weather conditions in past years. The results will help you decide how hot, cold, wet, or windy it might be!

Date:

Astronomy

Jan. 28, 2014 Rise Set
Actual Time 9:30 AM AKST 5:06 PM AKST
Civil Twilight 8:41 AM AKST 5:55 PM AKST
Nautical Twilight 7:48 AM AKST 6:48 PM AKST
Astronomical Twilight 6:59 AM AKST 7:37 PM AKST
Moon 7:33 AM AKST (1/28) 2:58 PM AKST (1/28)
Length of Visible Light 9h 14m
Length of Day
7h 35m
Waning Crescent, 6% of the Moon is Illuminated
Jan 28
Waning Crescent
Jan 30
New
Feb 6
First Quarter
Feb 14
Full
Feb 22
Last Quarter

Hourly Weather History & Observations

Time (AKST) Temp. Windchill Dew Point Humidity Pressure Visibility Wind Dir Wind Speed Gust Speed Precip Events Conditions
12:53 AM 37.0 °F - 33.1 °F 86% 29.86 in 10.0 mi Calm Calm - N/A   Mostly Cloudy
1:53 AM 36.0 °F - 33.1 °F 89% 29.87 in 10.0 mi Calm Calm - N/A   Clear
3:53 AM 36.0 °F - 34.0 °F 93% 29.90 in 10.0 mi Calm Calm - 0.00 in Rain Light Rain
4:53 AM 36.0 °F 32.1 °F 34.0 °F 93% 29.90 in 10.0 mi NE 4.6 mph - 0.00 in   Overcast
5:53 AM 36.0 °F - 34.0 °F 93% 29.91 in 10.0 mi Calm Calm - 0.00 in   Overcast
6:53 AM 36.0 °F - 34.0 °F 93% 29.93 in 10.0 mi Calm Calm - 0.00 in   Overcast
7:53 AM 35.1 °F 30.1 °F 34.0 °F 96% 29.94 in 10.0 mi ENE 5.8 mph - 0.00 in   Overcast
8:53 AM 34.0 °F - 33.1 °F 96% 29.95 in 10.0 mi Calm Calm - N/A   Clear
9:53 AM 32.0 °F - 32.0 °F 100% 29.96 in 10.0 mi Calm Calm - N/A   Clear
10:53 AM 34.0 °F 29.8 °F 33.1 °F 96% 29.97 in 10.0 mi NE 4.6 mph - N/A   Clear
11:53 AM 37.9 °F - 34.0 °F 86% 29.98 in 10.0 mi Calm Calm - N/A   Clear
12:53 PM 43.0 °F - 33.1 °F 68% 29.98 in 10.0 mi Calm Calm - N/A   Clear
1:53 PM 45.0 °F - 32.0 °F 60% 29.99 in 10.0 mi Calm Calm - N/A   Partly Cloudy
2:53 PM 44.1 °F 42.5 °F 30.9 °F 60% 29.98 in 10.0 mi North 3.5 mph - N/A   Clear
3:53 PM 42.1 °F 40.2 °F 30.0 °F 62% 29.98 in 10.0 mi ENE 3.5 mph - N/A   Clear
4:53 PM 39.0 °F - 28.9 °F 67% 29.99 in 10.0 mi Calm Calm - N/A   Clear
5:53 PM 36.0 °F 29.6 °F 28.9 °F 76% 29.99 in 10.0 mi NE 8.1 mph - N/A   Clear
6:53 PM 34.0 °F 29.8 °F 28.0 °F 79% 30.01 in 10.0 mi North 4.6 mph - N/A   Clear
7:53 PM 33.1 °F 26.9 °F 27.0 °F 78% 30.02 in 10.0 mi NNE 6.9 mph - N/A   Clear
8:53 PM 34.0 °F 26.6 °F 26.1 °F 73% 30.01 in 10.0 mi ENE 9.2 mph - N/A   Clear
9:53 PM 33.1 °F 28.7 °F 26.1 °F 75% 30.02 in 10.0 mi NNE 4.6 mph - N/A   Clear
10:53 PM 33.1 °F 27.7 °F 25.0 °F 72% 30.02 in 10.0 mi ENE 5.8 mph - N/A   Clear
11:53 PM 33.1 °F 26.1 °F 24.1 °F 70% 30.02 in 10.0 mi ENE 8.1 mph - N/A   Clear